Wind_Speed
33 33 31 30 29 28 28 29 32 35 38 40 44 47 51 55 58 59 60 62 62 65 67 69 71 73 77 81 82 83 81 80 80 79 79 81 81 79 77 75 73 71 69 69
15 17 18 18 19 21 23 24 27 29 32 35 37 38 43 45 50 54 57 59 60 60 62 66 67 69 73 77 82 84 87 87 85 84 84 83 84 84 83 81 78 77 74 73
12 11 11 13 13 14 17 18 21 23 26 30 34 36 40 42 45 49 54 57 58 59 61 61 62 63 66 71 76 82 86 89 91 90 89 88 87 86 86 86 85 82 79 77
8 7 6 5 6 8 10 14 17 21 23 23 25 26 29 32 36 38 43 46 50 50 53 60 66 68 68 69 68 73 80 86 91 94 93 92 92 91 89 89 88 87 84 82
5 4 4 6 8 11 15 18 21 22 23 24 26 26 28 28 30 33 35 37 40 43 42 39 41 51 58 66 73 75 76 80 86 92 95 96 96 94 92 91 91 89 88 86
7 7 7 10 13 16 19 22 24 26 25 25 28 31 32 33 37 36 36 37 37 37 39 40 41 41 40 46 53 65 74 81 86 89 93 96 98 98 95 93 92 91 89 88
10 12 14 16 18 21 24 27 29 29 29 30 28 33 34 35 39 40 41 40 39 39 39 39 40 42 43 40 42 44 49 56 69 83 91 94 97 98 99 96 92 91 90 90
15 17 19 20 23 24 27 28 29 33 33 32 31 31 37 37 39 43 45 45 44 44 45 43 41 42 43 42 38 34 35 28 38 52 67 80 95 97 97 98 95 92 90 89
20 21 23 25 26 27 29 30 31 33 35 35 35 31 40 39 41 45 48 50 49 48 47 47 46 44 46 42 38 33 35 34 34 37 39 47 64 81 94 95 95 94 91 87
22 24 26 27 27 27 28 30 32 34 38 41 40 35 42 43 44 45 48 51 52 52 51 49 49 47 47 47 41 36 39 44 43 38 38 37 51 65 75 83 90 91 92 87
24 24 26 26 26 27 27 30 32 34 37 40 45 38 44 46 46 47 48 51 53 56 54 53 51 49 46 46 44 40 38 41 43 42 31 31 39 46 64 72 78 84 87 88
25 25 26 26 28 30 31 32 33 37 40 40 43 42 45 47 49 49 50 52 54 56 57 56 54 51 48 44 43 40 42 41 40 40 36 33 33 33 43 59 65 75 81 84
25 25 28 29 30 34 34 36 37 41 44 42 46 45 45 50 51 51 51 52 55 57 57 58 56 54 51 47 43 41 39 44 41 40 38 33 33 32 35 39 53 66 69 74
25 26 29 32 35 39 40 39 41 43 46 49 46 49 44 53 53 53 54 54 56 57 57 58 57 54 53 49 46 42 41 38 45 43 40 37 33 31 35 37 40 60 59 56
27 29 32 34 38 42 43 43 45 46 47 52 47 53 51 56 54 53 53 57 57 57 58 58 56 55 54 52 48 45 42 40 35 45 43 38 36 34 32 40 42 52 58 61
33 35 37 38 40 45 49 44 47 50 48 52 51 52 53 55 57 55 52 58 57 57 59 58 57 56 54 53 50 47 45 41 38 34 43 43 39 35 30 33 45 42 57 65
40 42 44 44 44 51 54 57 52 50 51 55 54 53 55 57 58 56 56 58 59 60 61 58 57 56 54 55 52 48 45 42 41 37 34 44 47 41 33 28 35 50 44 59
45 48 50 47 49 56 62 59 54 55 53 53 56 55 57 57 58 59 59 59 62 62 62 59 58 54 52 54 52 51 47 43 41 41 38 35 46 47 42 31 28 35 50 50
50 49 47 49 56 61 61 59 55 59 56 54 59 58 57 58 59 58 57 59 64 64 62 60 56 51 51 53 53 53 48 45 43 42 41 37 34 50 48 44 35 30 30 46
48 48 53 53 59 65 62 58 60 63 61 60 61 59 60 60 60 60 60 61 62 64 64 61 57 52 51 51 53 53 49 46 44 44 43 41 36 34 48 50 49 41 35 33
52 53 55 57 62 66 59 63 64 63 66 64 63 65 65 63 63 62 63 64 64 64 62 61 57 52 51 51 53 53 50 46 44 45 44 44 40 37 35 42 56 59 48 40
55 56 57 61 66 66 63 65 65 67 68 68 68 68 67 68 67 65 64 64 64 63 60 58 56 52 52 53 52 52 51 47 46 45 46 44 43 40 37 35 41 61 62 51
57 58 60 65 65 63 65 65 67 68 68 71 71 69 70 69 67 67 65 64 63 61 57 55 55 53 53 52 52 53 51 48 46 46 46 45 43 42 40 38 37 41 61 63
59 64 66 63 62 65 67 69 70 72 72 71 72 70 69 69 67 66 65 63 61 59 55 53 52 52 53 51 53 55 54 48 47 47 48 45 43 42 42 40 39 38 39 53
64 67 62 67 68 67 69 71 72 73 74 72 70 69 70 69 67 66 64 62 61 59 55 52 52 54 52 53 54 58 55 50 48 50 48 49 45 42 42 42 40 39 38 38
63 65 64 72 67 71 71 72 74 71 70 69 69 66 65 67 65 63 61 60 57 52 49 50 54 52 52 54 55 58 55 51 49 48 46 47 43 42 42 41 42 40 39 38
Wind_Direction
280 281 281 283 284 285 285 286 285 282 282 281 280 280 279 279 278 275 272 271 269 268 267 265 263 259 257 257 255 256 255 254 252 250 250 249 248 247 248 248 247 248 246 245
280 284 285 286 289 295 300 305 309 306 303 301 299 295 290 286 284 282 282 280 278 275 271 268 265 262 260 257 255 254 254 254 253 251 249 248 249 248 246 246 246 246 246 246
285 291 302 312 319 332 339 340 335 328 320 311 307 300 296 294 292 292 291 291 289 285 283 279 275 271 266 260 256 253 252 252 253 252 250 249 247 247 248 246 245 245 245 246
285 301 308 333 347 341 336 341 347 353 352 349 341 325 309 299 294 290 287 286 285 285 286 285 284 282 278 271 262 256 253 251 249 250 250 250 248 246 246 247 245 244 245 244
276 274 279 306 310 316 325 332 332 335 337 343 344 341 345 329 315 307 305 299 294 291 293 294 293 284 278 274 271 266 257 250 249 248 247 248 248 247 245 245 245 245 243 244
258 262 276 287 300 311 320 323 326 324 328 333 340 340 340 342 340 333 321 314 313 309 307 307 311 308 304 289 275 268 264 259 251 247 247 246 245 247 245 244 243 244 244 243
267 272 283 290 299 308 314 322 320 321 325 330 332 332 335 337 338 338 334 327 321 319 318 317 319 324 321 310 295 288 280 273 264 254 248 245 244 244 245 244 243 242 243 243
272 278 283 289 298 306 310 313 319 319 319 321 322 330 327 331 337 336 337 335 333 331 329 326 325 327 327 319 304 282 284 293 284 280 262 252 245 243 243 243 242 241 240 241
281 283 289 295 300 306 310 313 316 316 313 315 318 329 320 326 333 335 335 337 335 334 332 331 331 330 329 326 307 291 272 285 297 294 295 268 250 244 241 241 241 241 241 239
287 289 292 296 301 305 310 314 317 318 317 319 320 326 317 323 328 330 333 332 332 333 334 334 333 332 331 327 317 295 284 280 292 296 292 281 256 244 238 238 239 239 240 240
290 292 295 300 304 307 313 315 317 317 316 317 318 328 317 319 323 328 328 330 329 329 332 332 332 332 330 326 321 302 288 286 288 290 286 290 273 263 243 234 232 235 236 238
294 297 299 302 306 309 313 313 315 314 314 318 315 326 314 316 318 324 325 327 326 326 328 328 329 330 329 326 318 309 286 282 277 280 284 286 289 265 263 243 231 229 232 234
295 299 300 305 307 308 311 311 313 311 310 315 312 321 316 312 316 318 323 323 323 323 324 324 326 326 327 325 321 312 300 275 272 276 279 281 286 275 253 261 244 225 227 230
299 305 304 307 308 308 311 309 310 308 309 306 316 309 317 309 314 318 320 320 320 320 321 320 322 322 323 324 321 317 309 296 267 271 274 277 277 283 263 246 247 231 220 220
297 299 300 302 302 303 304 308 309 308 307 305 312 308 311 309 312 316 316 317 317 318 317 317 318 319 321 323 321 316 310 303 294 266 268 270 273 272 278 243 238 237 224 213
296 300 297 296 296 299 302 307 305 307 307 305 307 306 305 307 310 313 314 313 314 313 313 314 315 316 316 319 319 315 310 302 299 295 260 262 267 269 266 263 233 233 232 221
294 293 298 297 292 299 302 301 305 307 304 305 304 304 304 307 310 312 313 311 310 311 311 311 312 313 313 314 315 315 309 303 296 296 290 262 260 263 254 256 253 231 234 233
293 295 297 293 294 298 301 301 304 302 301 303 300 302 305 307 308 310 311 309 308 309 309 309 309 310 310 311 311 314 310 302 295 292 294 290 255 252 255 242 246 246 234 234
294 294 290 289 294 296 295 300 304 300 300 300 299 302 304 304 304 306 307 305 306 307 306 306 306 308 307 307 309 312 310 302 295 289 288 290 292 249 247 246 240 247 238 235
293 290 290 293 294 294 295 303 299 298 300 298 302 302 302 303 303 305 304 303 304 302 301 302 303 304 304 303 305 310 308 303 293 289 285 285 286 287 252 246 243 242 248 231
291 291 292 294 291 293 302 299 298 300 300 301 302 302 304 304 302 302 302 303 301 300 299 300 300 301 300 300 303 308 306 303 294 286 283 282 283 281 280 261 248 246 243 244
290 292 293 290 291 297 300 298 298 298 301 300 301 302 301 301 301 302 301 300 299 298 297 298 297 298 297 298 302 305 304 301 294 287 284 280 280 279 276 275 261 247 251 242
290 290 290 289 293 296 293 293 294 296 296 297 298 299 298 299 300 300 299 299 297 296 296 295 295 296 294 295 298 302 302 298 292 287 284 281 277 276 275 272 271 258 249 252
290 289 288 291 291 292 291 293 293 294 296 295 296 296 297 298 297 297 297 297 295 296 295 294 294 292 291 292 295 299 300 296 289 285 281 281 277 273 271 271 269 268 259 250
289 290 292 290 290 289 292 291 291 292 293 294 295 296 295 295 296 296 296 295 295 294 294 293 290 288 287 291 294 298 297 293 287 284 283 277 276 272 270 269 269 267 267 259
289 287 289 286 289 289 289 289 290 293 294 294 293 294 294 294 295 294 293 293 294 294 292 290 286 286 288 291 293 296 293 292 289 287 283 276 276 273 267 268 269 267 265 265
Height
5705 5704 5702 5701 5701 5700 5698 5697 5695 5693 5691 5688 5683 5680 5675 5670 5666 5664 5663 5662 5662 5659 5658 5656 5656 5658 5659 5659 5661 5663 5665 5668 5671 5673 5677 5681 5684 5689 5693 5697 5702 5707 5711 5716
5698 5696 5696 5695 5694 5692 5690 5688 5685 5682 5679 5676 5673 5670 5663 5659 5654 5649 5645 5642 5641 5641 5640 5637 5636 5636 5637 5637 5638 5640 5641 5644 5647 5652 5655 5660 5664 5669 5673 5678 5683 5687 5692 5696
5692 5691 5689 5688 5688 5686 5684 5682 5679 5675 5671 5666 5665 5661 5654 5650 5644 5640 5632 5627 5624 5620 5618 5617 5615 5614 5614 5614 5614 5616 5618 5620 5622 5627 5631 5636 5642 5648 5651 5657 5662 5668 5673 5679
5688 5686 5686 5685 5684 5684 5682 5678 5674 5669 5666 5662 5658 5654 5647 5641 5635 5631 5625 5619 5614 5609 5604 5599 5594 5593 5589 5588 5592 5593 5594 5595 5598 5600 5604 5610 5616 5624 5629 5634 5641 5648 5654 5659
5684 5682 5681 5680 5680 5678 5676 5672 5669 5665 5662 5658 5653 5648 5641 5635 5630 5623 5617 5611 5605 5597 5593 5587 5581 5575 5569 5566 5566 5566 5567 5570 5571 5574 5579 5584 5590 5598 5606 5613 5618 5625 5632 5639
5679 5678 5678 5677 5675 5672 5669 5667 5663 5659 5655 5651 5645 5640 5634 5627 5621 5616 5609 5601 5595 5588 5580 5573 5567 5561 5555 5547 5543 5541 5540 5542 5545 5548 5551 5557 5564 5571 5580 5588 5595 5604 5610 5617
5674 5673 5672 5671 5669 5666 5663 5659 5655 5652 5646 5643 5638 5633 5627 5620 5613 5606 5599 5592 5585 5577 5570 5564 5556 5548 5542 5535 5528 5523 5520 5518 5518 5520 5525 5531 5538 5545 5552 5561 5571 5580 5589 5596
5669 5669 5666 5664 5662 5660 5657 5653 5649 5642 5639 5636 5632 5627 5619 5613 5606 5597 5589 5582 5573 5566 5559 5552 5545 5538 5531 5523 5518 5513 5510 5506 5503 5499 5499 5503 5511 5519 5527 5535 5545 5555 5564 5575
5663 5662 5660 5658 5655 5653 5649 5646 5642 5637 5632 5627 5624 5621 5612 5604 5598 5590 5581 5572 5565 5558 5551 5543 5535 5527 5520 5513 5507 5503 5500 5497 5494 5490 5484 5482 5484 5491 5501 5510 5520 5532 5542 5554
5657 5655 5653 5650 5648 5645 5641 5638 5634 5629 5622 5614 5611 5610 5600 5595 5589 5583 5574 5565 5557 5550 5542 5534 5526 5519 5511 5503 5497 5493 5490 5487 5484 5481 5476 5471 5467 5469 5475 5485 5497 5508 5520 5532
5649 5648 5646 5643 5640 5637 5634 5629 5625 5619 5615 5608 5599 5602 5592 5585 5579 5573 5567 5558 5549 5540 5532 5525 5518 5510 5503 5495 5488 5483 5480 5477 5473 5471 5467 5462 5457 5455 5456 5463 5472 5484 5496 5509
5641 5639 5636 5635 5631 5627 5625 5621 5616 5610 5605 5601 5594 5592 5582 5575 5569 5564 5556 5549 5540 5532 5524 5515 5508 5501 5494 5488 5480 5473 5469 5466 5464 5461 5458 5454 5449 5446 5445 5448 5454 5464 5475 5488
5634 5632 5628 5625 5624 5618 5615 5611 5607 5601 5594 5592 5585 5581 5573 5564 5559 5553 5547 5539 5530 5522 5514 5505 5498 5491 5485 5477 5471 5465 5459 5455 5454 5452 5449 5445 5442 5438 5437 5437 5441 5448 5459 5470
5624 5623 5619 5616 5612 5607 5604 5601 5597 5592 5585 5578 5579 5569 5567 5552 5548 5541 5535 5527 5520 5513 5504 5496 5488 5482 5475 5468 5461 5456 5450 5444 5442 5441 5439 5436 5433 5430 5429 5429 5431 5436 5445 5457
5616 5614 5611 5607 5602 5597 5594 5590 5584 5579 5575 5566 5568 5554 5552 5540 5537 5532 5524 5515 5509 5503 5494 5486 5479 5472 5464 5457 5451 5445 5440 5435 5430 5428 5427 5426 5423 5421 5420 5420 5422 5426 5431 5439
5605 5602 5600 5599 5593 5586 5582 5580 5574 5569 5563 5554 5551 5547 5538 5532 5524 5520 5514 5504 5498 5491 5483 5476 5468 5461 5453 5447 5441 5435 5429 5424 5419 5415 5414 5414 5413 5412 5409 5409 5411 5414 5420 5424
5594 5590 5587 5585 5580 5574 5570 5565 5561 5556 5548 5541 5536 5532 5525 5519 5511 5504 5499 5491 5484 5477 5469 5462 5456 5449 5442 5435 5430 5424 5419 5413 5408 5404 5401 5399 5401 5401 5399 5399 5399 5401 5405 5410
5581 5577 5573 5570 5566 5561 5554 5549 5547 5541 5537 5529 5521 5518 5512 5505 5498 5491 5483 5475 5467 5461 5454 5447 5441 5436 5429 5423 5418 5412 5406 5401 5397 5393 5389 5386 5385 5388 5389 5388 5389 5389 5391 5396
5568 5563 5558 5555 5552 5547 5542 5536 5532 5522 5522 5516 5507 5503 5498 5492 5485 5479 5472 5462 5453 5446 5439 5433 5427 5421 5416 5409 5405 5399 5394 5389 5385 5381 5378 5375 5373 5372 5375 5377 5377 5379 5378 5380
5554 5550 5546 5541 5534 5527 5525 5523 5514 5504 5502 5498 5493 5487 5482 5476 5469 5463 5456 5449 5442 5433 5425 5419 5413 5408 5402 5397 5392 5387 5382 5377 5373 5369 5366 5364 5362 5359 5358 5362 5363 5366 5368 5368
5538 5532 5529 5523 5514 5510 5513 5502 5495 5489 5485 5478 5474 5468 5462 5457 5452 5447 5439 5432 5424 5417 5410 5403 5398 5393 5388 5384 5379 5374 5369 5365 5361 5357 5354 5351 5349 5348 5346 5345 5349 5350 5355 5358
5523 5517 5513 5505 5498 5495 5491 5483 5479 5470 5464 5457 5453 5448 5443 5438 5433 5428 5422 5414 5405 5399 5394 5386 5381 5378 5373 5369 5365 5361 5356 5351 5347 5343 5340 5338 5336 5335 5334 5333 5332 5335 5339 5344
5505 5503 5497 5489 5484 5482 5472 5467 5461 5456 5451 5442 5434 5430 5424 5419 5416 5409 5403 5396 5388 5381 5377 5371 5365 5361 5358 5354 5350 5346 5342 5338 5334 5329 5326 5325 5323 5321 5321 5321 5320 5320 5322 5325
5489 5480 5474 5473 5474 5462 5453 5448 5442 5435 5430 5426 5419 5413 5406 5401 5396 5390 5384 5378 5371 5364 5358 5353 5349 5345 5343 5339 5335 5332 5328 5324 5320 5316 5313 5311 5310 5308 5307 5308 5307 5307 5307 5308
5470 5460 5457 5451 5447 5441 5437 5428 5422 5417 5410 5404 5400 5394 5387 5380 5378 5370 5366 5359 5353 5348 5343 5338 5334 5331 5327 5323 5320 5316 5312 5309 5305 5301 5298 5296 5295 5294 5293 5293 5293 5294 5294 5294
5453 5445 5435 5425 5429 5420 5418 5410 5401 5397 5391 5385 5378 5374 5368 5361 5357 5351 5347 5341 5336 5332 5328 5325 5321 5317 5312 5308 5303 5300 5296 5292 5288 5286 5283 5280 5280 5279 5279 5279 5278 5279 5281 5280